Location: Bonn
(50.7330°N, 7.1000°E)
Time: 15:43:52
(UTC+02:00)

Iridium 67 - Visible Passes

Search period start: 16 April 2014 00:00
Search period end: 26 April 2014 00:00
Orbit: 776 x 779 km, 86.4° (Epoch: 15 April)

Date Brightness Start Highest point End Pass type
(mag) Time Alt. Az. Time Alt. Az. Time Alt. Az.
16 Apr 6.8 21:22:34 10° NNE 21:26:39 23° ENE 21:30:04 13° ESE visible
16 Apr 5.9 23:02:40 10° N 23:07:48 60° W 23:10:34 27° SSW visible
17 Apr 5.4 22:29:03 10° N 22:34:18 83° E 22:37:28 25° S visible
18 Apr 8.0 00:11:12 10° NW 00:14:19 16° WNW 00:17:26 10° WSW visible
18 Apr 5.8 21:55:36 10° N 22:00:41 49° E 22:04:24 18° SSE visible
18 Apr 7.3 23:36:51 10° NNW 23:41:08 26° W 23:44:53 12° SW visible
19 Apr 6.5 21:22:21 10° NNE 21:26:56 30° ENE 21:31:20 11° SE visible
19 Apr 6.5 23:02:54 10° NNW 23:07:49 43° W 23:11:50 15° SSW visible
20 Apr 5.7 22:29:10 10° N 22:34:23 73° W 22:38:48 15° S visible
21 Apr 8.2 00:12:21 10° NW 00:14:09 12° WNW 00:15:56 10° W visible
21 Apr 5.5 21:55:37 10° N 22:00:50 68° E 22:05:47 11° SSE visible
21 Apr 7.8 23:37:22 10° NNW 23:41:02 20° WNW 23:44:41 10° WSW visible
22 Apr 6.1 21:22:14 10° N 21:27:10 40° ENE 21:32:03 10° SSE visible
22 Apr 7.1 23:03:12 10° NNW 23:07:47 32° W 23:12:21 10° SW visible
23 Apr 6.2 22:29:21 10° NNW 22:34:26 53° W 22:39:28 10° SSW visible
24 Apr 5.5 21:55:42 10° N 22:00:57 89° W 22:06:10 10° S visible
24 Apr 8.1 23:38:07 10° NW 23:40:52 15° WNW 23:43:38 10° WSW visible
25 Apr 5.7 21:22:12 10° N 21:27:21 55° E 21:32:27 10° SSE visible
25 Apr 7.6 23:03:36 10° NNW 23:07:42 24° WNW 23:11:47 10° SW visible
